This is the latest recevied weather packets stored in our database for station/object N4ASP-13. If no packets are shown the sender has not sent any weather packets the latest 10 day(s).
| Time | Temp. | Humidity | Pressure | Rain* | Wind** | Luminosity | Snow |
|---|---|---|---|---|---|---|---|
| 1778264619 | 18.33° C | 38% | 1016.1 hPa | 0 mm | - | 1069 W/m² | - |
| 1778264558 | 18.33° C | 41% | 1016.1 hPa | 0 mm | - | 1071 W/m² | - |
| 1778264499 | 18.33° C | 39% | 1016.1 hPa | 0 mm | - | 1074 W/m² | - |
| 1778264428 | 18.33° C | 37% | 1016.1 hPa | 0 mm | - | 1074 W/m² | - |
| 1778264368 | 18.33° C | 39% | 1016.1 hPa | 0 mm | - | 1076 W/m² | - |
| 1778264309 | 18.33° C | 40% | 1016.1 hPa | 0 mm | - | 1074 W/m² | - |
| 1778264249 | 18.33° C | 39% | 1016.2 hPa | 0 mm | - | 1078 W/m² | - |
| 1778264189 | 18.33° C | 45% | 1016.1 hPa | 0 mm | - | 1079 W/m² | - |
| 1778264124 | 18.33° C | 44% | 1016.2 hPa | 0 mm | - | 1079 W/m² | - |
| 1778264063 | 18.33° C | 41% | 1016.1 hPa | 0 mm | - | 1083 W/m² | - |
| 1778264004 | 17.78° C | 39% | 1016.2 hPa | 0 mm | - | 1085 W/m² | - |
| 1778263944 | 17.78° C | 41% | 1016.2 hPa | 0 mm | - | 1085 W/m² | - |
| 1778263883 | 17.78° C | 40% | 1016.2 hPa | 0 mm | - | 1085 W/m² | - |
| 1778263817 | 17.78° C | 43% | 1016.2 hPa | 0 mm | - | 1085 W/m² | - |
| 1778263755 | 17.78° C | 42% | 1016.2 hPa | 0 mm | - | 1086 W/m² | - |
| 1778263697 | 17.78° C | 43% | 1016.1 hPa | 0 mm | - | 1086 W/m² | - |
| 1778263637 | 17.78° C | 39% | 1016.1 hPa | 0 mm | - | 1088 W/m² | - |
| 1778263576 | 17.78° C | 39% | 1016.2 hPa | 0 mm | - | 1088 W/m² | - |
| 1778263507 | 17.78° C | 38% | 1016.2 hPa | 0 mm | - | 1092 W/m² | - |
| 1778263447 | 17.78° C | 39% | 1016.3 hPa | 0 mm | - | 1092 W/m² | - |
| 1778263387 | 17.78° C | 40% | 1016.2 hPa | 0 mm | - | 1093 W/m² | - |
| 1778263326 | 17.78° C | 39% | 1016.3 hPa | 0 mm | - | 1099 W/m² | - |
| 1778263267 | 17.78° C | 44% | 1016.3 hPa | 0 mm | - | 1100 W/m² | - |
| 1778263199 | 17.22° C | 40% | 1016.3 hPa | 0 mm | - | 1100 W/m² | - |
| 1778263140 | 17.22° C | 40% | 1016.3 hPa | 0 mm | - | 1100 W/m² | - |
* Rain latest hour (hover to see other rain measurements)
** Current wind speed in m/s (hover to see current wind gust speed)